Regional Weather Roundup
Issued by NWS

Home | Current Version | Previous Version | Text Only | Print | Product List | Glossary On
Versions: 1 2 3 4 5 6 7 8 9 10 11 12 13 14 15 16 17 18 19 20 21 22 23 24 25 26 27 28 29 30 31 32 33 34 35 36 37 38 39 40 41 42 43 44 45 46 47 48 49 50
000
ASUS43 KLSX 300110
RWRMO

WEATHER SUMMARY FOR MISSOURI
NATIONAL WEATHER SERVICE SPRINGFIELD MO
800 PM CDT THU SEP 29 2016

NOTE: "FAIR" INDICATES FEW OR NO CLOUDS BELOW 12,000 FEET WITH NO
       SIGNIFICANT WEATHER AND/OR OBSTRUCTIONS TO VISIBILITY.
       CURRENT SKY AND/OR WEATHER CONDITIONS ARE NOT AVAILABLE FOR
       CHILLICOTHE AND FARMINGTON.

MOZ001>031-035>038-043-044-053-054-300200-
...NORTHERN AND WESTERN MISSOURI...

CITY           SKY/WX    TMP DP  RH WIND       PRES   REMARKS
KANSAS CTY INT CLEAR     61  46  57 N8        30.29R
KANSAS C DTWN  CLEAR     66  48  52 N3        30.27S
LEE`S SUMMIT   CLEAR     63  49  60 NW7       30.28S
ST JOSEPH      CLEAR     56  49  77 N5        30.29S
CHILLICOTHE      N/A     60  52  74 CALM      30.28R
KIRKSVILLE     CLEAR     62  49  62 N6        30.25R

$$
MOZ066>068-077>081-088>096-101>105-300200-
...SOUTHWEST MISSOURI...

CITY           SKY/WX    TMP DP  RH WIND       PRES   REMARKS
SPRINGFIELD    CLEAR     62  47  57 NW5       30.23S
JOPLIN         CLEAR     59  50  72 NW5       30.26S
BRANSON        CLEAR     63  46  55 NW5       30.24R

$$
MOZ032>034-039>042-045>050-055>058-069>072-300200-
...CENTRAL MISSOURI...

CITY           SKY/WX    TMP DP  RH WIND       PRES   REMARKS
COLUMBIA       MOCLDY    65  52  62 NW8       30.21S
JEFFERSON CITY CLOUDY    67  54  63 NW5       30.19S
ROLLA          MOCLDY    63  52  67 NW6       30.19S
SEDALIA        CLEAR     63  49  60 NW7       30.25R
WHITEMAN AFB   CLEAR     62  50  64 N8        30.24R
OSAGE BEACH    CLEAR     62  53  72 NW3       30.22S

$$
MOZ051-052-059>065-300200-
...EAST CENTRAL MISSOURI...

CITY           SKY/WX    TMP DP  RH WIND       PRES   REMARKS
ST LOUIS INTL  LGT RAIN  64  58  80 NE3       30.18S
SPIRIT OF STL  CLOUDY    63  58  83 CALM      30.17S
ST CHARLES     CLOUDY    62  59  90 N10       30.17R

$$
MOZ072>076-082>087-097>100-106>115-300200-
...SOUTH CENTRAL AND SOUTHEAST MISSOURI...

CITY           SKY/WX    TMP DP  RH WIND       PRES   REMARKS
CAPE GIRARDEAU PTCLDY    57  56  96 W6        30.15S FOG
FARMINGTON     CLOUDY    60  57  89 NW6       30.18F
POPLAR BLUFF   CLOUDY    64  57  78 CALM      30.15S
WEST PLAINS    CLEAR     61  51  70 NW5       30.21S

$$




USA.gov is the U.S. government's official web portal to all federal, state and local government web resources and services.